TimeEDT,TemperatureF,Dew PointF,Humidity,Sea Level PressureIn,VisibilityMPH,Wind Direction,Wind SpeedMPH,Gust SpeedMPH,PrecipitationIn,Events,Conditions,WindDirDegrees,DateUTC
12:54 AM,63.0,53.1,70,29.95,10.0,NW,6.9,-,N/A,,Mostly Cloudy,310,2012-09-29 04:54:00
1:54 AM,62.1,54.0,75,29.95,10.0,WNW,4.6,-,N/A,,Overcast,300,2012-09-29 05:54:00
2:28 AM,62.6,53.6,72,29.95,10.0,WNW,5.8,-,N/A,,Overcast,290,2012-09-29 06:28:00
2:54 AM,61.0,54.0,78,29.94,10.0,NW,5.8,-,0.00,Rain,Light Rain,310,2012-09-29 06:54:00
3:12 AM,60.8,55.4,82,29.95,10.0,WNW,4.6,-,0.00,,Scattered Clouds,300,2012-09-29 07:12:00
3:22 AM,60.8,55.4,82,29.95,10.0,WNW,5.8,-,0.00,,Mostly Cloudy,300,2012-09-29 07:22:00
3:54 AM,61.0,55.0,81,29.94,10.0,NW,6.9,-,0.00,,Overcast,320,2012-09-29 07:54:00
4:25 AM,60.8,55.4,82,29.94,10.0,WNW,4.6,-,N/A,,Mostly Cloudy,300,2012-09-29 08:25:00
4:37 AM,60.8,55.4,82,29.94,10.0,NW,3.5,-,N/A,,Mostly Cloudy,310,2012-09-29 08:37:00
4:54 AM,60.1,55.0,83,29.95,10.0,WNW,4.6,-,N/A,,Overcast,300,2012-09-29 08:54:00
5:54 AM,60.1,55.0,83,29.95,10.0,NNW,5.8,-,N/A,,Overcast,330,2012-09-29 09:54:00
6:54 AM,59.0,53.1,81,29.95,10.0,NW,8.1,-,N/A,,Overcast,320,2012-09-29 10:54:00
7:27 AM,57.2,53.6,88,29.96,10.0,NW,5.8,-,N/A,,Overcast,310,2012-09-29 11:27:00
7:54 AM,57.9,52.0,81,29.97,10.0,WNW,6.9,-,N/A,,Overcast,300,2012-09-29 11:54:00
8:28 AM,57.2,51.8,82,29.97,10.0,NNW,13.8,-,N/A,,Overcast,330,2012-09-29 12:28:00
8:54 AM,59.0,52.0,78,29.97,10.0,NNW,6.9,-,N/A,,Overcast,340,2012-09-29 12:54:00
9:32 AM,59.0,51.8,77,29.97,10.0,NNW,8.1,-,N/A,,Overcast,330,2012-09-29 13:32:00
9:39 AM,59.0,51.8,77,29.97,10.0,NNW,8.1,-,N/A,,Overcast,330,2012-09-29 13:39:00
9:54 AM,60.1,52.0,75,29.97,10.0,NW,8.1,-,N/A,,Overcast,320,2012-09-29 13:54:00
10:54 AM,61.0,52.0,72,29.97,10.0,NNW,8.1,-,N/A,,Overcast,340,2012-09-29 14:54:00
11:54 AM,60.1,52.0,75,29.97,10.0,North,5.8,-,N/A,,Overcast,360,2012-09-29 15:54:00
12:54 PM,61.0,51.1,70,29.96,10.0,NNW,9.2,-,N/A,,Overcast,330,2012-09-29 16:54:00
1:54 PM,62.1,51.1,67,29.94,10.0,NNW,4.6,-,N/A,,Overcast,340,2012-09-29 17:54:00
2:34 PM,62.6,51.8,68,29.94,10.0,NW,6.9,-,N/A,,Overcast,310,2012-09-29 18:34:00
2:54 PM,62.1,51.1,67,29.92,10.0,West,6.9,-,N/A,,Overcast,280,2012-09-29 18:54:00
3:54 PM,63.0,51.1,65,29.91,10.0,West,4.6,-,N/A,,Mostly Cloudy,270,2012-09-29 19:54:00
4:54 PM,63.0,51.1,65,29.91,10.0,NW,5.8,-,N/A,,Overcast,320,2012-09-29 20:54:00
5:54 PM,63.0,51.1,65,29.91,10.0,NNW,4.6,-,N/A,,Overcast,340,2012-09-29 21:54:00
6:54 PM,59.0,51.1,75,29.92,10.0,WSW,3.5,-,N/A,,Partly Cloudy,250,2012-09-29 22:54:00
7:54 PM,57.9,53.1,84,29.93,10.0,Calm,Calm,-,N/A,,Overcast,0,2012-09-29 23:54:00
8:54 PM,57.0,51.1,81,29.92,10.0,West,3.5,-,N/A,,Partly Cloudy,270,2012-09-30 00:54:00
9:54 PM,57.0,52.0,83,29.92,10.0,Calm,Calm,-,N/A,,Overcast,0,2012-09-30 01:54:00
10:54 PM,57.0,52.0,83,29.92,10.0,WNW,3.5,-,N/A,,Overcast,300,2012-09-30 02:54:00
11:54 PM,57.9,52.0,81,29.91,10.0,NW,5.8,-,N/A,,Overcast,310,2012-09-30 03:54:00